This is the latest recevied weather packets stored in our database for station/object DL9GRB-13. If no packets are shown the sender has not sent any weather packets the latest 10 day(s).
| Time | Temp. | Humidity | Pressure | Rain* | Wind** | Luminosity | Snow |
|---|---|---|---|---|---|---|---|
| 1777729747 | 27.78° C | 27% | 1014.6 hPa | 0 mm | - | 592 W/m² | - |
| 1777729567 | 27.78° C | 27% | 1014.8 hPa | 0 mm | - | 600 W/m² | - |
| 1777729387 | 27.78° C | 28% | 1014.8 hPa | 0 mm | - | 604 W/m² | - |
| 1777729207 | 27.78° C | 28% | 1014.8 hPa | 0 mm | - | 608 W/m² | - |
| 1777729027 | 27.78° C | 28% | 1014.8 hPa | 0 mm | - | 613 W/m² | - |
| 1777728847 | 27.78° C | 30% | 1014.9 hPa | 0 mm | - | 444 W/m² | - |
| 1777728667 | 27.78° C | 29% | 1015.1 hPa | 0 mm | - | 619 W/m² | - |
| 1777728487 | 27.78° C | 29% | 1015 hPa | 0 mm | - | 621 W/m² | - |
| 1777728307 | 27.78° C | 30% | 1015 hPa | 0 mm | - | 627 W/m² | - |
| 1777728127 | 27.78° C | 28% | 1015 hPa | 0 mm | - | 631 W/m² | - |
| 1777727947 | 27.78° C | 28% | 1015.1 hPa | 0 mm | - | 636 W/m² | - |
| 1777727767 | 27.78° C | 28% | 1015.2 hPa | 0 mm | - | 640 W/m² | - |
| 1777727587 | 27.78° C | 29% | 1015.2 hPa | 0 mm | - | 648 W/m² | - |
| 1777727407 | 27.78° C | 29% | 1015.2 hPa | 0 mm | - | 652 W/m² | - |
| 1777727227 | 27.78° C | 29% | 1015.2 hPa | 0 mm | - | 662 W/m² | - |
| 1777727047 | 27.78° C | 29% | 1015.3 hPa | 0 mm | - | 668 W/m² | - |
| 1777726867 | 27.78° C | 28% | 1015.2 hPa | 0 mm | - | 676 W/m² | - |
| 1777726687 | 27.78° C | 29% | 1015.4 hPa | 0 mm | - | 681 W/m² | - |
| 1777726507 | 27.22° C | 29% | 1015.3 hPa | 0 mm | - | 687 W/m² | - |
| 1777726327 | 27.22° C | 28% | 1015.8 hPa | 0 mm | - | 691 W/m² | - |
| 1777726147 | 27.22° C | 28% | 1015.6 hPa | 0 mm | - | 700 W/m² | - |
| 1777725967 | 27.78° C | 28% | 1015.7 hPa | 0 mm | - | 702 W/m² | - |
| 1777725787 | 27.22° C | 28% | 1015.7 hPa | 0 mm | - | 704 W/m² | - |
| 1777725607 | 27.22° C | 30% | 1015.7 hPa | 0 mm | - | 709 W/m² | - |
| 1777725427 | 27.22° C | 28% | 1015.9 hPa | 0 mm | - | 710 W/m² | - |
* Rain latest hour (hover to see other rain measurements)
** Current wind speed in m/s (hover to see current wind gust speed)